📊 Raw Sensor Data

Showing records 34376 to 34400 of 84,847 total

ID Distance (ft) Battery V Battery A Int Temp (°F) Int Humid (%) Ext Temp (°F) Solar V RSSI SNR Time Stamp
50484 15.6 3.83 0 82 42 78 5.10 -72 8 08/28/2025 11:30 AM
50483 15.6 3.83 0 81 42 79 5.10 -76 8 08/28/2025 11:15 AM
50482 15.6 3.88 0 80 42 75 5.10 -74 8 08/28/2025 11:00 AM
50481 15.7 3.83 0 79 42 77 5.10 -74 8 08/28/2025 10:45 AM
50480 15.6 3.83 0 77 42 75 5.10 -73 8 08/28/2025 10:30 AM
50479 15.6 3.83 0 76 42 75 5.10 -70 8 08/28/2025 10:15 AM
50478 15.6 3.83 0 75 42 74 5.10 -71 8 08/28/2025 10:00 AM
50477 15.6 3.98 0 73 42 76 5.10 -70 8 08/28/2025 09:45 AM
50476 15.6 3.86 0 72 42 73 5.10 -70 8 08/28/2025 09:30 AM
50475 15.7 3.86 7 71 41 73 5.10 -70 7 08/28/2025 09:15 AM
50474 15.6 3.87 8 70 41 73 5.10 -69 8 08/28/2025 09:00 AM
50473 15.7 3.87 0 68 41 72 5.10 -69 7 08/28/2025 08:45 AM
50472 15.6 4.09 10 67 41 73 5.10 -71 8 08/28/2025 08:30 AM
50471 15.6 4.06 110 65 41 71 4.50 -71 8 08/28/2025 08:15 AM
50470 15.5 3.98 65 63 41 71 4.50 -71 8 08/28/2025 08:00 AM
50469 15.5 3.93 57 60 42 68 4.50 -71 8 08/28/2025 07:45 AM
50468 15.5 3.88 18 58 42 64 4.50 -73 8 08/28/2025 07:30 AM
50467 15.4 3.88 0 56 43 62 4.50 -72 8 08/28/2025 07:15 AM
50466 15.4 3.79 0 54 43 59 4.50 -71 7 08/28/2025 07:01 AM
50465 15.3 3.84 -7 53 43 55 4.50 -71 8 08/28/2025 06:45 AM
50464 15.3 3.78 -9 53 44 55 1.70 -71 7 08/28/2025 06:30 AM
50463 15.3 3.84 -5 53 44 55 0.60 -70 7 08/28/2025 06:15 AM
50462 15.3 3.79 -5 53 44 55 0.00 -71 7 08/28/2025 06:00 AM
50461 15.3 3.85 -5 53 44 55 0.00 -71 8 08/28/2025 05:45 AM
50460 15.3 3.79 -5 54 44 55 0.00 -70 8 08/28/2025 05:15 AM